Location: Bothwell
(42.3833°S, 147.0000°E)
Time: 21:38:31
(UTC+11:00)

CUTE-I - Pass Details

Date: 26 September 2022
Orbit: 810 x 823 km, 98.7° (Epoch: 29 November)

Event Time Altitude Azimuth Distance (km) Brightness Sun altitude
Rises 20:05:25 0° 182° (S) 3,391 ? -21.1°
Reaches altitude 10° 20:08:31 10° 200° (SSW) 2,452 ? -21.6°
Maximum altitude 20:11:58 18° 240° (WSW) 1,968 ? -22.2°
Drops below altitude 10° 20:15:25 10° 280° (W) 2,439 ? -22.8°
Sets 20:18:30 0° 298° (WNW) 3,364 ? -23.3°
